ABL8014 RKPC-RKSS

Flight info

Callsign ABL8014
Flight time 0h 46m
Altitude 25000
Route KAMIT1W KAMIT Y722 OLMEN OLMEN2T
Aircraft A321/M-SDE3FGHIRWY/LB1

Departure

Time 2026-04-30 13:01
Airport Jeju International Airport (RKPC)

Arrival

Time 2026-04-30 13:48
Airport Gimpo International Airport (RKSS)
Time Latitude Longitude Altitude Speed Heading
2026-04-30 12:44 33.50669 126.48748 91 ft 0 kts 328°
2026-04-30 12:53 33.50671 126.48746 93 ft 1 kts 328°
2026-04-30 12:53 33.50684 126.48737 91 ft 5 kts 328°
2026-04-30 12:53 33.50738 126.48707 91 ft 9 kts 359°
2026-04-30 12:54 33.50782 126.48765 89 ft 10 kts 57°
2026-04-30 12:54 33.50822 126.48842 91 ft 12 kts 58°
2026-04-30 12:54 33.50869 126.48933 88 ft 14 kts 59°
2026-04-30 12:54 33.50922 126.49036 88 ft 15 kts 57°
2026-04-30 12:55 33.50981 126.49153 91 ft 17 kts 58°
2026-04-30 12:55 33.51045 126.49277 89 ft 18 kts 58°
2026-04-30 12:55 33.51111 126.49404 88 ft 19 kts 58°
2026-04-30 12:55 33.51181 126.49541 89 ft 19 kts 59°
2026-04-30 12:56 33.51255 126.49682 88 ft 21 kts 58°
2026-04-30 12:56 33.51344 126.49819 86 ft 17 kts 24°
2026-04-30 12:56 33.51388 126.49815 87 ft 0 kts 335°
2026-04-30 12:59 33.51395 126.49811 87 ft 4 kts 335°
2026-04-30 12:59 33.51438 126.49783 86 ft 8 kts 326°
2026-04-30 13:00 33.51470 126.49733 87 ft 7 kts 276°
2026-04-30 13:00 33.51449 126.49682 88 ft 7 kts 237°
2026-04-30 13:00 33.51445 126.49675 87 ft 0 kts 237°
2026-04-30 13:00 33.51431 126.49648 91 ft 24 kts 238°
2026-04-30 13:01 33.51210 126.49217 89 ft 95 kts 238°
2026-04-30 13:01 33.50930 126.48676 94 ft 134 kts 238°
2026-04-30 13:01 33.50155 126.47177 538 ft 163 kts 240°
2026-04-30 13:01 33.49755 126.46406 958 ft 167 kts 242°
2026-04-30 13:02 33.49129 126.45181 1423 ft 182 kts 243°
2026-04-30 13:02 33.48432 126.43807 1689 ft 203 kts 243°
2026-04-30 13:02 33.47655 126.42282 1889 ft 225 kts 243°
2026-04-30 13:02 33.46501 126.40024 2255 ft 253 kts 242°
2026-04-30 13:03 33.45868 126.38792 2686 ft 259 kts 242°
2026-04-30 13:03 33.45238 126.36796 3357 ft 257 kts 271°
2026-04-30 13:03 33.45644 126.34803 4070 ft 252 kts 305°
2026-04-30 13:03 33.46915 126.33385 4791 ft 253 kts 330°
2026-04-30 13:04 33.48580 126.32698 5488 ft 257 kts 354°
2026-04-30 13:04 33.50370 126.32985 6165 ft 266 kts 20°
2026-04-30 13:04 33.52073 126.33941 6816 ft 272 kts 24°
2026-04-30 13:04 33.53785 126.34945 7463 ft 276 kts 24°
2026-04-30 13:05 33.55529 126.35975 8117 ft 281 kts 24°
2026-04-30 13:05 33.57275 126.37004 8761 ft 285 kts 24°
2026-04-30 13:05 33.59096 126.38074 9413 ft 290 kts 23°
2026-04-30 13:06 33.62788 126.40235 10325 ft 311 kts 23°
2026-04-30 13:06 33.64804 126.41407 10462 ft 332 kts 23°
2026-04-30 13:06 33.66942 126.42652 10660 ft 348 kts 24°
2026-04-30 13:06 33.69124 126.43929 11110 ft 355 kts 24°
2026-04-30 13:07 33.71358 126.45243 11625 ft 360 kts 24°
2026-04-30 13:07 33.73625 126.46576 12130 ft 366 kts 24°
2026-04-30 13:07 33.75930 126.47933 12631 ft 371 kts 24°
2026-04-30 13:07 33.78269 126.49310 13146 ft 376 kts 24°
2026-04-30 13:08 33.80634 126.50702 13591 ft 383 kts 24°
2026-04-30 13:08 33.83047 126.52120 14038 ft 389 kts 24°
2026-04-30 13:08 33.85490 126.53554 14528 ft 392 kts 24°
2026-04-30 13:08 33.87937 126.54990 15014 ft 396 kts 24°
2026-04-30 13:09 33.90426 126.56454 15487 ft 400 kts 24°
2026-04-30 13:09 33.92942 126.57939 15966 ft 404 kts 24°
2026-04-30 13:09 33.95476 126.59432 16438 ft 407 kts 24°
2026-04-30 13:09 33.98036 126.60940 16905 ft 411 kts 24°
2026-04-30 13:10 34.00615 126.62464 17410 ft 414 kts 25°
2026-04-30 13:10 34.03206 126.64001 17903 ft 417 kts 25°
2026-04-30 13:10 34.05822 126.65550 18354 ft 420 kts 25°
2026-04-30 13:10 34.08454 126.67107 18719 ft 424 kts 25°
2026-04-30 13:11 34.11093 126.68670 19071 ft 428 kts 25°
2026-04-30 13:11 34.13786 126.70267 19409 ft 433 kts 25°
2026-04-30 13:11 34.16501 126.71877 19760 ft 437 kts 25°
2026-04-30 13:11 34.19238 126.73501 20157 ft 440 kts 25°
2026-04-30 13:12 34.21998 126.75141 20467 ft 444 kts 25°
2026-04-30 13:12 34.24864 126.76600 20678 ft 450 kts 15°
2026-04-30 13:12 34.27915 126.77417 20991 ft 450 kts
2026-04-30 13:13 34.34205 126.78096 21640 ft 457 kts
2026-04-30 13:13 34.37388 126.78432 22009 ft 460 kts
2026-04-30 13:13 34.43816 126.79112 22657 ft 468 kts
2026-04-30 13:14 34.47077 126.79460 22988 ft 471 kts
2026-04-30 13:14 34.50352 126.79809 23319 ft 474 kts
2026-04-30 13:14 34.56934 126.80514 23939 ft 480 kts
2026-04-30 13:15 34.60271 126.80873 24286 ft 482 kts
2026-04-30 13:15 34.66989 126.81586 24879 ft 486 kts
2026-04-30 13:15 34.70355 126.81946 24973 ft 483 kts
2026-04-30 13:16 34.73684 126.82306 24993 ft 477 kts
2026-04-30 13:16 34.76971 126.82661 24993 ft 474 kts
2026-04-30 13:16 34.80260 126.83015 24987 ft 472 kts
2026-04-30 13:17 34.86804 126.83718 24986 ft 472 kts
2026-04-30 13:17 34.90073 126.84072 24988 ft 472 kts
2026-04-30 13:17 34.96616 126.84783 24987 ft 472 kts
2026-04-30 13:18 34.99889 126.85138 24987 ft 472 kts
2026-04-30 13:18 35.06392 126.85842 24983 ft 471 kts
2026-04-30 13:18 35.09661 126.86193 24984 ft 471 kts
2026-04-30 13:19 35.12928 126.86544 24988 ft 471 kts
2026-04-30 13:19 35.16194 126.86896 25002 ft 471 kts
2026-04-30 13:19 35.19455 126.87250 25006 ft 470 kts
2026-04-30 13:19 35.22717 126.87605 25006 ft 470 kts
2026-04-30 13:20 35.25973 126.87960 25005 ft 469 kts
2026-04-30 13:20 35.29224 126.88314 25005 ft 469 kts
2026-04-30 13:20 35.32476 126.88670 25008 ft 469 kts
2026-04-30 13:20 35.35726 126.89025 25007 ft 468 kts
2026-04-30 13:21 35.38970 126.89379 25010 ft 468 kts
2026-04-30 13:21 35.42221 126.89735 25009 ft 467 kts
2026-04-30 13:21 35.45459 126.90089 25006 ft 467 kts
2026-04-30 13:22 35.51877 126.90778 24997 ft 466 kts
2026-04-30 13:22 35.55106 126.91128 24997 ft 466 kts
2026-04-30 13:22 35.61553 126.91841 25007 ft 464 kts
2026-04-30 13:23 35.64762 126.92192 25008 ft 463 kts
2026-04-30 13:23 35.71185 126.92892 25003 ft 462 kts
2026-04-30 13:24 35.77591 126.93589 25001 ft 461 kts
2026-04-30 13:24 35.83981 126.94298 24998 ft 460 kts
2026-04-30 13:25 35.90342 126.95000 24843 ft 452 kts
2026-04-30 13:25 35.96468 126.95677 24356 ft 432 kts
2026-04-30 13:26 36.05358 126.96663 23650 ft 423 kts
2026-04-30 13:26 36.11199 126.97309 23117 ft 419 kts
2026-04-30 13:27 36.16934 126.97951 22575 ft 414 kts
2026-04-30 13:28 36.25492 126.98911 21772 ft 408 kts
2026-04-30 13:28 36.31127 126.99523 21213 ft 405 kts
2026-04-30 13:28 36.33922 126.99826 20957 ft 402 kts
2026-04-30 13:29 36.39473 127.00328 20451 ft 397 kts 358°
2026-04-30 13:29 36.44974 127.00133 19949 ft 394 kts 358°
2026-04-30 13:30 36.53111 126.99846 19206 ft 386 kts 358°
2026-04-30 13:31 36.58447 126.99649 18728 ft 381 kts 358°
2026-04-30 13:31 36.66315 126.99367 17985 ft 375 kts 358°
2026-04-30 13:32 36.71494 126.99577 17436 ft 370 kts 13°
2026-04-30 13:32 36.76142 127.02066 16917 ft 362 kts 38°
2026-04-30 13:33 36.79872 127.06180 16400 ft 356 kts 45°
2026-04-30 13:33 36.83485 127.10324 15839 ft 346 kts 45°
2026-04-30 13:34 36.85231 127.12322 15449 ft 342 kts 45°
2026-04-30 13:34 36.90404 127.18254 14269 ft 331 kts 45°
2026-04-30 13:35 36.92095 127.20198 13896 ft 328 kts 45°
2026-04-30 13:35 36.95412 127.24018 13140 ft 319 kts 45°
2026-04-30 13:36 36.98634 127.27750 12645 ft 325 kts 45°
2026-04-30 13:36 37.00366 127.29602 12225 ft 331 kts 34°
2026-04-30 13:36 37.04738 127.30789 11432 ft 325 kts 350°
2026-04-30 13:37 37.06850 127.29869 11061 ft 321 kts 331°
2026-04-30 13:37 37.10734 127.27132 10325 ft 318 kts 331°
2026-04-30 13:38 37.14465 127.24521 9704 ft 295 kts 332°
2026-04-30 13:38 37.16227 127.23283 9536 ft 289 kts 331°
2026-04-30 13:38 37.19757 127.20808 9065 ft 290 kts 331°
2026-04-30 13:39 37.23229 127.18377 8092 ft 281 kts 331°
2026-04-30 13:39 37.26477 127.15606 7736 ft 288 kts 319°
2026-04-30 13:40 37.27951 127.13938 7343 ft 281 kts 318°
2026-04-30 13:40 37.29394 127.12313 6949 ft 276 kts 319°
2026-04-30 13:40 37.30773 127.10682 6573 ft 274 kts 317°
2026-04-30 13:40 37.32118 127.09006 6298 ft 272 kts 316°
2026-04-30 13:41 37.33442 127.07352 5947 ft 263 kts 316°
2026-04-30 13:41 37.34725 127.05755 5598 ft 258 kts 316°
2026-04-30 13:41 37.36005 127.04164 5248 ft 257 kts 316°
2026-04-30 13:41 37.37253 127.02609 4916 ft 249 kts 316°
2026-04-30 13:42 37.38456 127.01110 4580 ft 238 kts 316°
2026-04-30 13:42 37.39606 126.99677 4265 ft 228 kts 316°
2026-04-30 13:42 37.41719 126.97042 3682 ft 208 kts 315°
2026-04-30 13:43 37.42735 126.95775 3412 ft 202 kts 315°
2026-04-30 13:43 37.43698 126.94573 3152 ft 187 kts 315°
2026-04-30 13:43 37.44583 126.93468 2901 ft 173 kts 315°
2026-04-30 13:43 37.45410 126.92435 2694 ft 160 kts 315°
2026-04-30 13:44 37.46169 126.91486 2473 ft 147 kts 315°
2026-04-30 13:44 37.46875 126.90604 2284 ft 143 kts 315°
2026-04-30 13:44 37.47576 126.89727 2093 ft 141 kts 315°
2026-04-30 13:44 37.48272 126.88857 1905 ft 141 kts 315°
2026-04-30 13:45 37.49661 126.87119 1508 ft 141 kts 315°
2026-04-30 13:45 37.50357 126.86247 1327 ft 141 kts 314°
2026-04-30 13:45 37.51050 126.85380 1136 ft 140 kts 315°
2026-04-30 13:46 37.51744 126.84511 953 ft 141 kts 314°
2026-04-30 13:46 37.52437 126.83645 740 ft 140 kts 313°
2026-04-30 13:46 37.53134 126.82768 541 ft 141 kts 311°
2026-04-30 13:46 37.53830 126.81898 363 ft 143 kts 313°
2026-04-30 13:47 37.54538 126.81011 163 ft 143 kts 312°
2026-04-30 13:47 37.55227 126.80138 60 ft 131 kts 313°
2026-04-30 13:47 37.55766 126.79468 60 ft 72 kts 315°
2026-04-30 13:47 37.56060 126.79104 58 ft 54 kts 317°
2026-04-30 13:48 37.56264 126.78980 64 ft 21 kts 349°
2026-04-30 13:48 37.56337 126.79047 66 ft 13 kts 112°
2026-04-30 13:48 37.56268 126.79131 64 ft 14 kts 134°
2026-04-30 13:48 37.56193 126.79223 58 ft 16 kts 134°
2026-04-30 13:49 37.56115 126.79323 57 ft 16 kts 135°
2026-04-30 13:49 37.56031 126.79428 64 ft 17 kts 135°
2026-04-30 13:49 37.55950 126.79543 60 ft 17 kts 120°
2026-04-30 13:49 37.55927 126.79693 67 ft 18 kts 98°
2026-04-30 13:50 37.55909 126.79839 67 ft 16 kts 99°
2026-04-30 13:50 37.55946 126.79968 65 ft 8 kts 45°
2026-04-30 13:50 37.55968 126.79994 67 ft 5 kts 45°
2026-04-30 13:51 37.55983 126.80014 60 ft 2 kts 45°
2026-04-30 13:51 37.55990 126.80023 60 ft 1 kts 45°
2026-04-30 13:51 37.55992 126.80025 61 ft 0 kts 45°